Regional Weather Roundup
Issued by NWS Wilmington, NC

Home | Current Version | Previous Version | Text Only | Print | Product List | Glossary On
Versions: 1 2 3 4 5 6 7 8 9 10 11 12 13 14 15 16 17 18 19 20 21 22 23 24 25 26 27 28 29 30 31 32 33 34 35 36 37 38 39 40 41 42 43 44 45 46 47 48 49 50
000
ASUS42 KILM 281013
RWRILM
RWRILM
REGIONAL HOURLY WEATHER ROUNDUP
NATIONAL WEATHER SERVICE WILMINGTON NC
600 AM EDT TUE JUL 28 2015

NOTE: "FAIR" INDICATES FEW OR NO CLOUDS BELOW 12,000 FEET WITH NO
SIGNIFICANT WEATHER AND/OR OBSTRUCTIONS TO VISIBILITY.

...............WFO WILMINGTON COUNTY WARNING AREA...............

......COASTAL NC AND SC COUNTIES......

CITY           SKY/WX    TMP DP  RH WIND       PRES   REMARKS
WILMINGTON     CLEAR     71  70  96 NE5       29.97R
N MYRTLE BEACH CLEAR     73  71  93 NE5       29.96R
MYRTLE BEACH   CLEAR     75  70  83 N5        29.98

......INLAND NC AND SC COUNTIES.......

CITY           SKY/WX    TMP DP  RH WIND       PRES   REMARKS
LUMBERTON      CLEAR     72  69  90 E3        29.97S
ELIZABETHTOWN  CLEAR     71  71 100 CALM      29.99R
WHITEVILLE     CLEAR     71  70  96 CALM      29.98R FOG
FLORENCE       PTCLDY    74  72  93 E6        29.97S
DARLINGTON     CLEAR     75  70  83 CALM      29.99R

....................REST OF NORTH CAROLINA......................

.........EASTERN NC.........

CITY           SKY/WX    TMP DP  RH WIND       PRES   REMARKS
CAPE HATTERAS  CLEAR     74  70  87 NE5       30.00S
JACKSONVILLE   CLEAR     70  64  83 N6        29.99R
MOREHEAD CITY  CLEAR     72  71  97 NE3       29.99R
KENANSVILLE    CLEAR     68  67  96 CALM      30.00S
NEW BERN       CLEAR     71  68  90 CALM      30.01R FOG
ELIZABETH CITY CLEAR     71  70  96 CALM      30.01R

.........CENTRAL NC.........

CITY           SKY/WX    TMP DP  RH WIND       PRES   REMARKS
RALEIGH DURHAM PTCLDY    74  71  91 CALM      30.00S
ROCKY MOUNT    CLEAR     69  68  96 CALM      30.01R FOG
ROANOKE RAPIDS NOT AVBL
FAYETTEVILLE   CLEAR     72  70  93 NE3       29.98S
HOFFMAN        CLEAR     71  70  95 NE2       29.98S

.........WESTERN NC.........

CITY           SKY/WX    TMP DP  RH WIND       PRES   REMARKS
CHARLOTTE      PTCLDY    73  69  87 CALM      30.00S
GREENSBORO     MOCLDY    71  71 100 CALM      30.01S
HICKORY        NOT AVBL
BOONE          NOT AVBL
ASHEVILLE      NOT AVBL

.....................REST OF SOUTH CAROLINA.....................

.........EASTERN SC.........

CITY           SKY/WX    TMP DP  RH WIND       PRES   REMARKS
CHARLESTON     PTCLDY    76  74  93 NE5       29.95R
BEAUFORT MCAS  CLOUDY    78  76  93 NE6       29.94R
HILTON HEAD    NOT AVBL

.........CENTRAL SC.........

CITY           SKY/WX    TMP DP  RH WIND       PRES   REMARKS
COLUMBIA       MOCLDY    79  73  82 SE5       29.96S
ORANGEBURG     CLEAR     76  73  91 NE3       29.96S
SUMTER SHAW    PTCLDY    77  74  88 NE2       29.95S

.........WESTERN SC.........

CITY           SKY/WX    TMP DP  RH WIND       PRES   REMARKS
GREENVILLE     NOT AVBL
ROCK HILL      PTCLDY    72  72 100 CALM      30.00S
ANDERSON       CLEAR     74  70  87 NE5       29.99R
CLEMSON        NOT AVBL
GREENWOOD      CLEAR     72  69  90 CALM      29.99S


...................COASTAL AND OFFSHORE REPORTS..................

................LOCAL PIERS AND NC RESERVE................


STATION/POSITION TIME  SKY/WX   TEMP    WIND        PRES    VSBY
                                AIR SEA DIR/SP/G
                 (UTC)          (F)     (DEG/KT/KT) (MB)    (MI)
JOHNY MRCER PIER 0900            80 84   70/ 10/ 11 1014.1F
NC RESRV MASNBRO NOT AVBL
OCEAN CREST PIER NOT AVBL
SPRINGMAID  PIER 0900            78 85   10/  7/  8 1014.2F


................COASTAL AND OFFSHORE BUOYS................


STATION/POSITION TIME  SKY/WX   TEMP    WIND        PRES    VSBY
                                AIR SEA DIR/SP/G
                 (UTC)          (F)     (DEG/KT/KT) (MB)    (MI)
DIMNDSHOAL 41025 NOT AVBL
CAPE LOOKOUT     1000            80      70/ 10/ 11 1015.1R
ONSLOW BAY 41036 NOT AVBL
5 WRITEBCH 41038 0908            81 81   80/ 10/ 16 1014.4F
MASONBORO  41110 0919               81                N/A
WVE H/P(F/S)=  3/ 6 WND WVE H/P(F/S)=  3/ 6

WILM HARBR 41108 0911               82                N/A
WVE H/P(F/S)=  3/ 7 WND WVE H/P(F/S)=  3/ 7

27WRITEBCH 41037 0900            78 81   70/ 10/ 12   N/A
FRYING PAN 41013 0950            83 84   80/ 12/ 14 1014.1S
WVE H/P(F/S)=  4/ 7 WND WVE H/P(F/S)=  2/ 5 SWL H/P/D(F/S/D)=  3/180/ 7

SUNST NRSH 41024 0908            78      50/ 10/ 12 1014.1F
CAPRS NRSH 41029 0908            81      70/ 12/ 14 1013.7S
EDISTO     41004 0950            82 84   20/ 10/ 12 1012.9R
WVE H/P(F/S)=  3/ 7 WND WVE H/P(F/S)=  2/ 5 SWL H/P/D(F/S/D)=  3/ 7



..........OFFSHORE BUOYS BEYOND 100 NM OFFSHORE...........
.....IN A TRIANGLE---HAT TO BERMUDA TO BAHAMAS TO HAT.....


STATION/POSITION TIME  SKY/WX   TEMP    WIND        PRES    VSBY
                                AIR SEA DIR/SP/G
                 (UTC)          (F)     (DEG/KT/KT) (MB)    (MI)
150E HAT   41001 0900            80 83   80/  8/ 10 1015.9R
W BERMUDA  41048 0950            79 81  220/ 16/ 17 1015.7R
WVE H/P(F/S)=  5/ 7 WND WVE H/P(F/S)=  5/ 7 SWL H/P/D(F/S/D)=  2/100/11

ATLANTIC S 41049 0950            83 85  230/  2/  4 1019.5R
WVE H/P(F/S)=  3/10 SWL H/P/D(F/S/D)=  3/110/10

E BAHAMAS  41046 0950            83 84  120/  8/ 10 1018.2R
WVE H/P(F/S)=  3/ 6 WND WVE H/P(F/S)=  2/ 4 SWL H/P/D(F/S/D)=  3/130/ 6

NE BAHAMAS 41047 0950            83 84  200/ 12/ 14 1017.2R
WVE H/P(F/S)=  3/ 6 WND WVE H/P(F/S)=  2/ 5 SWL H/P/D(F/S/D)=  3/150/ 6

120E CANVRL41010 0920            84 84  220/ 12/ 14 1014.4F

END


USA.gov is the U.S. government's official web portal to all federal, state and local government web resources and services.